VOZ8384 YBRM-YANG

Flight info

Callsign VOZ8384
Flight time N/A
Altitude 34000
Route BRM Q38 LOTVI
Aircraft B738/M-SDE2E3FGHIRWXY/LB1

Departure

Time 2026-05-06 10:32
Airport Broome International Airport (YBRM)

Arrival

Time N/A
Airport West Angelas Airport (YANG)
Time Latitude Longitude Altitude Speed Heading
2026-05-06 10:06 -17.95192 122.23396 36 ft 0 kts 256°
2026-05-06 10:22 -17.95189 122.23388 36 ft 3 kts 290°
2026-05-06 10:23 -17.95174 122.23371 36 ft 3 kts 329°
2026-05-06 10:23 -17.95149 122.23370 36 ft 4 kts
2026-05-06 10:23 -17.95138 122.23373 35 ft 0 kts 15°
2026-05-06 10:29 -17.95128 122.23376 36 ft 5 kts 15°
2026-05-06 10:29 -17.95078 122.23394 34 ft 4 kts 22°
2026-05-06 10:30 -17.95049 122.23381 34 ft 3 kts 287°
2026-05-06 10:32 -17.95014 122.23257 37 ft 53 kts 285°
2026-05-06 10:32 -17.94847 122.22627 53 ft 123 kts 285°
2026-05-06 10:32 -17.94575 122.21585 304 ft 159 kts 285°
2026-05-06 10:32 -17.94235 122.20489 1172 ft 157 kts 285°
2026-05-06 10:33 -17.94160 122.19317 1878 ft 172 kts 265°
2026-05-06 10:33 -17.94693 122.18059 2168 ft 213 kts 230°
2026-05-06 10:33 -17.95883 122.17073 2806 ft 214 kts 214°
2026-05-06 10:33 -17.97064 122.16242 3782 ft 200 kts 214°
2026-05-06 10:34 -17.98228 122.15431 3801 ft 196 kts 213°
2026-05-06 10:34 -17.99439 122.14597 4165 ft 223 kts 213°
2026-05-06 10:34 -18.00809 122.13650 4415 ft 249 kts 213°
2026-05-06 10:34 -18.02326 122.12596 4760 ft 270 kts 213°
2026-05-06 10:35 -18.03916 122.11484 4926 ft 278 kts 213°
2026-05-06 10:35 -18.05521 122.10357 4944 ft 277 kts 213°
2026-05-06 10:35 -18.07135 122.09269 4943 ft 274 kts 210°
2026-05-06 10:35 -18.08792 122.08263 5065 ft 278 kts 209°
2026-05-06 10:36 -18.10487 122.07257 5866 ft 279 kts 209°
2026-05-06 10:36 -18.12173 122.06254 6841 ft 279 kts 210°
2026-05-06 10:36 -18.13871 122.05238 7703 ft 282 kts 210°
2026-05-06 10:36 -18.15586 122.04206 8523 ft 287 kts 210°
2026-05-06 10:37 -18.17334 122.03150 9332 ft 292 kts 210°
2026-05-06 10:37 -18.19101 122.02078 10194 ft 295 kts 211°
2026-05-06 10:37 -18.20927 122.00967 10579 ft 316 kts 211°
2026-05-06 10:37 -18.22877 121.99778 10772 ft 340 kts 211°
2026-05-06 10:38 -18.24993 121.98487 11029 ft 360 kts 211°
2026-05-06 10:38 -18.27177 121.97155 11657 ft 365 kts 211°
2026-05-06 10:38 -18.29381 121.95810 12414 ft 367 kts 211°
2026-05-06 10:38 -18.31600 121.94455 13157 ft 370 kts 211°
2026-05-06 10:39 -18.33836 121.93090 13865 ft 373 kts 212°
2026-05-06 10:39 -18.36083 121.91717 14490 ft 373 kts 212°
2026-05-06 10:39 -18.38334 121.90357 14887 ft 374 kts 212°
2026-05-06 10:39 -18.40602 121.88984 15134 ft 378 kts 212°
2026-05-06 10:40 -18.42889 121.87594 15436 ft 380 kts 212°
2026-05-06 10:40 -18.45182 121.86194 15776 ft 381 kts 212°
2026-05-06 10:40 -18.47476 121.84791 16104 ft 382 kts 212°
2026-05-06 10:40 -18.49778 121.83379 16411 ft 383 kts 213°
2026-05-06 10:41 -18.52084 121.81965 16704 ft 385 kts 213°
2026-05-06 10:41 -18.54401 121.80542 16992 ft 386 kts 213°
2026-05-06 10:41 -18.56725 121.79115 17279 ft 387 kts 213°
2026-05-06 10:41 -18.59056 121.77683 17556 ft 388 kts 213°
2026-05-06 10:42 -18.61390 121.76249 17824 ft 389 kts 213°
2026-05-06 10:42 -18.63734 121.74808 18082 ft 391 kts 213°
2026-05-06 10:42 -18.66084 121.73362 18317 ft 392 kts 213°
2026-05-06 10:42 -18.68440 121.71910 18526 ft 393 kts 214°
2026-05-06 10:43 -18.70815 121.70437 19025 ft 396 kts 214°
2026-05-06 10:43 -18.73187 121.68968 19610 ft 396 kts 214°
2026-05-06 10:43 -18.75574 121.67498 20111 ft 398 kts 214°
2026-05-06 10:44 -18.80628 121.64964 21062 ft 412 kts 202°
2026-05-06 10:44 -18.83396 121.64141 21590 ft 414 kts 201°
2026-05-06 10:44 -18.86180 121.63338 22044 ft 416 kts 201°
2026-05-06 10:44 -18.88983 121.62530 22465 ft 420 kts 201°
2026-05-06 10:45 -18.91810 121.61708 22893 ft 422 kts 201°
2026-05-06 10:45 -18.94649 121.60874 23333 ft 424 kts 202°
2026-05-06 10:45 -18.97500 121.60031 23719 ft 427 kts 202°
2026-05-06 10:45 -19.00365 121.59179 24080 ft 428 kts 202°
2026-05-06 10:46 -19.03236 121.58323 24450 ft 429 kts 202°
2026-05-06 10:46 -19.06115 121.57464 24809 ft 430 kts 202°
2026-05-06 10:46 -19.09000 121.56601 25152 ft 432 kts 203°
2026-05-06 10:46 -19.11861 121.55745 25490 ft 434 kts 203°
2026-05-06 10:47 -19.14810 121.54863 25812 ft 435 kts 203°
2026-05-06 10:47 -19.17688 121.54001 26135 ft 437 kts 203°
2026-05-06 10:47 -19.20658 121.53113 26455 ft 438 kts 203°
2026-05-06 10:47 -19.23598 121.52232 26763 ft 440 kts 203°
2026-05-06 10:48 -19.26505 121.51362 27058 ft 441 kts 203°
2026-05-06 10:48 -19.29464 121.50475 27349 ft 443 kts 203°
2026-05-06 10:48 -19.32430 121.49586 27633 ft 444 kts 204°
2026-05-06 10:48 -19.35408 121.48693 27909 ft 445 kts 204°
2026-05-06 10:49 -19.38393 121.47798 28172 ft 447 kts 204°
2026-05-06 10:49 -19.41389 121.46899 28429 ft 448 kts 204°
2026-05-06 10:49 -19.44391 121.45998 28706 ft 450 kts 204°
2026-05-06 10:49 -19.47413 121.45090 28964 ft 451 kts 204°
2026-05-06 10:50 -19.50426 121.44186 29313 ft 450 kts 204°
2026-05-06 10:50 -19.53427 121.43286 29728 ft 447 kts 204°
2026-05-06 10:50 -19.56413 121.42391 30141 ft 445 kts 204°
2026-05-06 10:50 -19.59380 121.41500 30481 ft 442 kts 205°
2026-05-06 10:51 -19.62334 121.40611 30830 ft 440 kts 205°
2026-05-06 10:51 -19.65273 121.39726 31184 ft 438 kts 205°
2026-05-06 10:51 -19.68193 121.38847 31547 ft 435 kts 205°
2026-05-06 10:51 -19.71100 121.37971 31921 ft 433 kts 205°
2026-05-06 10:52 -19.73972 121.37106 32521 ft 425 kts 206°
2026-05-06 10:52 -19.76785 121.36261 33189 ft 416 kts 206°
2026-05-06 10:52 -19.79533 121.35434 33805 ft 408 kts 207°
2026-05-06 10:52 -19.82267 121.34605 33932 ft 408 kts 207°
2026-05-06 10:53 -19.84976 121.33749 33956 ft 401 kts 211°
2026-05-06 10:53 -19.89898 121.31264 33964 ft 389 kts 218°
2026-05-06 10:54 -19.94684 121.28589 33965 ft 387 kts 218°
2026-05-06 10:54 -19.99178 121.25568 33954 ft 384 kts 220°
2026-05-06 10:55 -20.03798 121.22679 33967 ft 385 kts 219°
2026-05-06 10:55 -20.08436 121.19800 33976 ft 387 kts 219°
2026-05-06 10:56 -20.13087 121.16900 33974 ft 388 kts 219°
2026-05-06 10:56 -20.17749 121.13986 33972 ft 389 kts 219°
2026-05-06 10:57 -20.22066 121.10656 33974 ft 378 kts 230°
2026-05-06 10:57 -20.25926 121.06846 33972 ft 379 kts 229°
2026-05-06 10:58 -20.29882 121.03159 33972 ft 382 kts 227°
2026-05-06 10:58 -20.33988 120.99555 33974 ft 383 kts 226°
2026-05-06 10:59 -20.37470 120.96575 33973 ft 383 kts 226°
2026-05-06 10:59 -20.41645 120.93033 33981 ft 384 kts 226°
2026-05-06 11:00 -20.46503 120.88918 33981 ft 384 kts 226°
2026-05-06 11:00 -20.49999 120.85954 33983 ft 383 kts 226°
2026-05-06 11:01 -20.54172 120.82412 33985 ft 383 kts 226°
2026-05-06 11:01 -20.58338 120.78876 33981 ft 382 kts 226°
2026-05-06 11:02 -20.62495 120.75343 33990 ft 382 kts 226°
2026-05-06 11:02 -20.66654 120.71805 33989 ft 382 kts 226°